Weather History for Blair, NE

Change the Weather History Date:

Friday, March 22, 2013

  Actual Average (KOMA) Record (KOMA)
Temperature  
Mean Temperature 30 °F 42 °F  
Max Temperature 34 °F 54 °F 88 °F (1910)
Min Temperature 25 °F 30 °F 7 °F (1888)
Degree Days  
Heating Degree Days 36 23  
Month to date heating degree days 602  
Since 1 July heating degree days 5400  
Cooling Degree Days 0 0  
Month to date cooling degree days 0  
Year to date cooling degree days 0  
Moisture  
Dew Point 19 °F    
Average Humidity 64    
Maximum Humidity 79    
Minimum Humidity 50    
Precipitation  
Precipitation 0.00 in 0.07 in 1.41 in (1979)
Month to date precipitation 1.27  
Year to date precipitation 2.84  
Snow  
Snow 0.00 in 0.10 in - ()
Month to date snowfall 3.3  
Since 1 July snowfall 24.5  
Snow Depth -    
Sea Level Pressure  
Sea Level Pressure 29.98 in    
Wind  
Wind Speed 7 mph (ENE)    
Max Wind Speed 10 mph    
Max Gust Speed -    
Visibility 10 miles    
Events Snow    
T = Trace of Precipitation, MM = Missing Value Source: NWS Daily Summary

Daily Weather History Graph

Daily Weather History Graph

Search for Another Location

Airport:

Trip Planner

Search our weather history database for the weather conditions in past years. The results will help you decide how hot, cold, wet, or windy it might be!

Date:

Astronomy

Mar. 22, 2013 Rise Set
Actual Time 7:23 AM CDT 7:39 PM CDT
Civil Twilight 6:56 AM CDT 8:06 PM CDT
Nautical Twilight 6:23 AM CDT 8:39 PM CDT
Astronomical Twilight 5:50 AM CDT 9:12 PM CDT
Moon 3:04 PM CDT (3/22) 4:27 AM CDT (3/22)
Length of Visible Light 13h 10m
Length of Day
12h 15m
Waxing Gibbous, 77% of the Moon is Illuminated
Mar 22
Waxing Gibbous
Mar 27
Full
Apr 2
Last Quarter
Apr 10
New
Apr 18
First Quarter

Hourly Weather History & Observations

Time (CDT) Temp. Windchill Dew Point Humidity Pressure Visibility Wind Dir Wind Speed Gust Speed Precip Events Conditions
12:15 AM 32.0 °F 24.8 °F 18.1 °F 57% 29.98 in 10.0 mi East 8.1 mph - N/A   Overcast
12:35 AM 32.0 °F 25.6 °F 18.5 °F 58% 29.98 in 10.0 mi ENE 6.9 mph - N/A   Overcast
12:55 AM 31.1 °F 23.7 °F 19.6 °F 62% 29.98 in 10.0 mi ENE 8.1 mph - N/A   Overcast
1:15 AM 30.4 °F 22.2 °F 19.4 °F 64% 29.98 in 10.0 mi ENE 9.2 mph - N/A   Overcast
1:35 AM 29.7 °F 22.0 °F 18.9 °F 64% 29.98 in 10.0 mi ENE 8.1 mph - N/A   Overcast
1:55 AM 29.7 °F 22.0 °F 18.5 °F 63% 29.99 in 10.0 mi ENE 8.1 mph - N/A   Overcast
2:15 AM 29.7 °F 22.0 °F 18.7 °F 64% 29.99 in 10.0 mi ENE 8.1 mph - N/A   Overcast
2:35 AM 29.3 °F 24.3 °F 18.7 °F 65% 30.00 in 10.0 mi ENE 4.6 mph - N/A   Overcast
2:55 AM 29.3 °F 24.3 °F 19.2 °F 66% 30.00 in 10.0 mi East 4.6 mph - N/A   Overcast
3:15 AM 29.3 °F 21.5 °F 19.4 °F 67% 29.99 in 10.0 mi NE 8.1 mph - N/A   Overcast
3:35 AM 29.1 °F 20.6 °F 19.8 °F 68% 29.98 in 10.0 mi NE 9.2 mph - N/A   Overcast
3:55 AM 28.4 °F 20.4 °F 20.1 °F 71% 29.98 in 10.0 mi NE 8.1 mph - N/A   Overcast
4:15 AM 28.0 °F 20.8 °F 20.3 °F 73% 29.98 in 10.0 mi ENE 6.9 mph - N/A   Overcast
4:35 AM 27.7 °F 18.8 °F 20.5 °F 74% 29.98 in 10.0 mi NE 9.2 mph - N/A   Overcast
4:55 AM 27.1 °F 17.5 °F 20.3 °F 75% 29.97 in 10.0 mi NE 10.4 mph - N/A   Overcast
5:15 AM 26.6 °F 16.8 °F 20.3 °F 77% 29.97 in 10.0 mi ENE 10.4 mph - N/A   Overcast
5:35 AM 26.2 °F 16.4 °F 20.1 °F 78% 29.97 in 10.0 mi ENE 10.4 mph - N/A   Overcast
5:55 AM 25.7 °F 17.1 °F 19.9 °F 79% 29.97 in 10.0 mi ENE 8.1 mph - N/A   Mostly Cloudy
6:15 AM 25.3 °F 18.5 °F 19.4 °F 78% 29.97 in 10.0 mi ENE 5.8 mph - N/A   Scattered Clouds
6:35 AM 25.7 °F 18.0 °F 19.4 °F 77% 29.98 in 10.0 mi ENE 6.9 mph - N/A   Mostly Cloudy
6:55 AM 25.7 °F 17.1 °F 19.2 °F 76% 29.98 in 10.0 mi East 8.1 mph - N/A   Overcast
7:15 AM 25.7 °F 19.0 °F 19.0 °F 76% 29.98 in 10.0 mi East 5.8 mph - N/A   Overcast
7:35 AM 25.7 °F 18.0 °F 18.9 °F 75% 29.98 in 10.0 mi East 6.9 mph - N/A   Overcast
7:55 AM 25.7 °F 19.0 °F 18.5 °F 74% 29.98 in 10.0 mi ENE 5.8 mph - N/A   Overcast
8:15 AM 25.7 °F 16.4 °F 18.5 °F 74% 29.98 in 10.0 mi ENE 9.2 mph - N/A   Overcast
8:35 AM 26.1 °F 16.8 °F 18.5 °F 73% 29.97 in 10.0 mi East 9.2 mph - N/A   Overcast
8:55 AM 26.2 °F 17.8 °F 18.3 °F 72% 29.98 in 10.0 mi East 8.1 mph - N/A   Overcast
9:15 AM 26.6 °F 21.2 °F 18.3 °F 71% 29.98 in 10.0 mi East 4.6 mph - N/A   Overcast
9:35 AM 26.6 °F 19.1 °F 18.3 °F 71% 29.98 in 10.0 mi East 6.9 mph - N/A   Overcast
9:55 AM 27.3 °F 20.9 °F 18.5 °F 69% 29.98 in 10.0 mi East 5.8 mph - N/A   Overcast
10:15 AM 27.9 °F 22.6 °F 18.5 °F 68% 29.98 in 10.0 mi East 4.6 mph - N/A   Overcast
10:35 AM 28.4 °F 22.2 °F 18.7 °F 67% 29.98 in 10.0 mi East 5.8 mph - N/A   Overcast
10:55 AM 28.6 °F 22.4 °F 18.7 °F 66% 29.99 in 10.0 mi East 5.8 mph - N/A   Overcast
11:15 AM 28.8 °F 23.7 °F 18.9 °F 67% 29.99 in 10.0 mi East 4.6 mph - N/A   Overcast
11:35 AM 28.9 °F 23.9 °F 18.9 °F 66% 30.00 in 10.0 mi East 4.6 mph - N/A   Overcast
11:55 AM 29.8 °F 24.9 °F 19.2 °F 65% 29.99 in 10.0 mi East 4.6 mph - N/A   Overcast
12:15 PM 30.2 °F 26.7 °F 19.8 °F 65% 29.99 in 10.0 mi ESE 3.5 mph - N/A Snow Light Snow
12:35 PM 30.2 °F 24.3 °F 19.9 °F 66% 30.00 in 7.0 mi ESE 5.8 mph - N/A Snow Light Snow
12:55 PM 30.9 °F 25.2 °F 20.3 °F 65% 30.00 in 10.0 mi ESE 5.8 mph - N/A   Overcast
1:15 PM 31.1 °F 24.5 °F 20.3 °F 64% 30.00 in 10.0 mi South 6.9 mph - N/A   Overcast
1:35 PM 31.3 °F 26.6 °F 19.9 °F 63% 29.99 in 10.0 mi SSE 4.6 mph - N/A   Overcast
1:55 PM 32.2 °F 26.7 °F 20.7 °F 63% 29.98 in 10.0 mi SE 5.8 mph - N/A   Overcast
2:15 PM 32.4 °F 26.0 °F 20.3 °F 61% 29.98 in 10.0 mi SE 6.9 mph - N/A   Overcast
2:35 PM 32.9 °F 28.5 °F 20.1 °F 59% 29.97 in 10.0 mi ESE 4.6 mph - N/A   Overcast
2:55 PM 33.6 °F 29.4 °F 19.9 °F 57% 29.96 in 10.0 mi East 4.6 mph - N/A   Overcast
3:15 PM 33.8 °F 30.8 °F 19.4 °F 56% 29.96 in 10.0 mi East 3.5 mph - N/A   Overcast
3:35 PM 33.1 °F - 19.2 °F 57% 29.96 in 10.0 mi Calm Calm - N/A   Overcast
3:55 PM 34.2 °F 31.2 °F 19.4 °F 55% 29.97 in 10.0 mi East 3.5 mph - N/A   Overcast
4:15 PM 34.0 °F - 18.5 °F 53% 29.97 in 10.0 mi Calm Calm - N/A   Overcast
4:35 PM 34.0 °F - 18.1 °F 52% 29.97 in 10.0 mi Calm Calm - N/A   Overcast
4:55 PM 34.5 °F 31.6 °F 18.1 °F 51% 29.97 in 10.0 mi ENE 3.5 mph - N/A   Overcast
5:15 PM 34.3 °F 28.4 °F 18.5 °F 52% 29.97 in 10.0 mi East 6.9 mph - N/A   Overcast
5:35 PM 34.5 °F 29.4 °F 18.3 °F 52% 29.97 in 10.0 mi East 5.8 mph - N/A   Overcast
5:55 PM 34.3 °F 27.7 °F 17.6 °F 50% 29.97 in 10.0 mi ENE 8.1 mph - N/A   Overcast
6:15 PM 34.0 °F 27.2 °F 17.8 °F 52% 29.97 in 10.0 mi ENE 8.1 mph - N/A   Overcast
6:35 PM 34.0 °F 27.2 °F 18.1 °F 52% 29.96 in 10.0 mi East 8.1 mph - N/A   Overcast
6:55 PM 33.8 °F 28.6 °F 18.1 °F 53% 29.97 in 10.0 mi East 5.8 mph - N/A   Overcast
7:15 PM 33.4 °F 29.1 °F 18.1 °F 54% 29.97 in 10.0 mi ENE 4.6 mph - N/A   Overcast
7:35 PM 33.3 °F 28.9 °F 18.1 °F 54% 29.98 in 10.0 mi ENE 4.6 mph - N/A   Overcast
7:55 PM 33.1 °F 28.7 °F 18.5 °F 55% 29.98 in 10.0 mi ENE 4.6 mph - N/A   Overcast
8:15 PM 32.9 °F 28.5 °F 19.2 °F 57% 29.99 in 10.0 mi ENE 4.6 mph - N/A   Overcast
8:35 PM 32.9 °F 28.5 °F 19.0 °F 57% 29.99 in 10.0 mi East 4.6 mph - N/A   Overcast
8:55 PM 32.9 °F 28.5 °F 19.4 °F 58% 30.00 in 10.0 mi ENE 4.6 mph - N/A   Overcast
9:15 PM 32.9 °F 29.8 °F 19.4 °F 58% 30.01 in 10.0 mi ENE 3.5 mph - N/A   Overcast
9:35 PM 32.7 °F 29.6 °F 19.9 °F 59% 30.01 in 10.0 mi NE 3.5 mph - N/A   Overcast
9:55 PM 32.7 °F 29.6 °F 19.8 °F 59% 30.01 in 10.0 mi NE 3.5 mph - N/A   Overcast
10:15 PM 32.5 °F 28.1 °F 19.8 °F 59% 30.02 in 10.0 mi NE 4.6 mph - N/A   Overcast
10:35 PM 32.4 °F 27.9 °F 20.1 °F 61% 30.01 in 10.0 mi ENE 4.6 mph - N/A   Overcast
10:55 PM 32.4 °F 26.9 °F 20.3 °F 61% 30.01 in 10.0 mi NE 5.8 mph - N/A   Overcast
11:35 PM 32.2 °F 28.9 °F 20.7 °F 63% 30.01 in 10.0 mi NNE 3.5 mph - N/A   Overcast
11:55 PM 32.2 °F 26.7 °F 20.8 °F 63% 30.01 in 10.0 mi NE 5.8 mph - N/A   Overcast